Regional Weather Roundup
Issued by NWS Little Rock, AR

Home | Current Version | Previous Version | Graphics & Text | Print | Product List | Glossary On
Versions: 1 2 3 4 5 6 7 8 9 10 11 12 13 14 15 16 17 18 19 20 21 22 23 24 25 26 27 28 29 30 31 32 33
000
ASUS44 KLZK 180805
RWRLZK

WEATHER ROUNDUP FOR ARKANSAS
NATIONAL WEATHER SERVICE LITTLE ROCK AR
300 AM CDT WED OCT 18 2017

NOTE: "FAIR" INDICATES FEW OR NO CLOUDS BELOW 12,000 FEET WITH NO
SIGNIFICANT WEATHER AND/OR OBSTRUCTIONS TO VISIBILITY.

ARZ001-003-010-029-180900-
NORTHWEST ARKANSAS

CITY           SKY/WX    TMP DP  RH WIND       PRES   REMARKS
FAYETTEVILLE   CLEAR     39  39 100 CALM      30.18R
FORT SMITH     CLEAR     49  46  90 NE5       30.18S
HARRISON       CLEAR     46  40  79 SE3       30.18S
BENTONVILLE    CLEAR     46  41  82 SE5       30.19S
ROGERS         CLEAR     48  42  80 SE6       30.18S
SILOAM SPGS    CLEAR     47  41  80 SE6       30.18S
HIGHFILL       CLEAR     46  41  82 SE3       30.17F
$$

ARZ004-005-016-180900-
NORTH CENTRAL ARKANSAS

CITY           SKY/WX    TMP DP  RH WIND       PRES   REMARKS
BATESVILLE     CLEAR     42  41  96 CALM      30.22S
FLIPPIN        CLEAR     43  40  89 CALM      30.20S
$$

ARZ040-041-180900-
WEST CENTRAL ARKANSAS

CITY           SKY/WX    TMP DP  RH WIND       PRES   REMARKS
MENA           CLEAR     41  39  93 CALM      30.21S
$$

ARZ009-017-025-026-028-180900-
NORTHEAST ARKANSAS

CITY           SKY/WX    TMP DP  RH WIND       PRES   REMARKS
CORNING        FAIR      45  45 100 CALM      30.22S
JONESBORO      CLEAR     45  45 100 CALM      30.22S
NEWPORT        CLEAR     44  43  96 CALM      30.22S
WALNUT RIDGE   CLEAR     45  44  97 NW3       30.22S
BLYTHEVILLE    CLEAR     51  47  86 S5        30.23S
$$

ARZ022-023-033-042-044-180900-
CENTRAL ARKANSAS

CITY           SKY/WX    TMP DP  RH WIND       PRES   REMARKS
LITTLE ROCK    CLEAR     47  46  97 CALM      30.21F
N LITTLE ROCK    N/A     56  45  68 S3        30.23S
JACKSONVILLE   CLEAR     42  41  94 CALM      30.20F
SEARCY         CLEAR     44  44 100 CALM      30.22S
HOT SPRINGS    CLEAR     46  44  93 CALM      30.21S
CLINTON        FAIR      39  39 100 CALM      30.23S
$$

ARZ036-180900-
EAST ARKANSAS

CITY           SKY/WX    TMP DP  RH WIND       PRES   REMARKS
WEST MEMPHIS   CLEAR     49  48  97 CALM      30.22R
$$

ARZ050-053-066-070-073-180900-
SOUTHWEST ARKANSAS

CITY           SKY/WX    TMP DP  RH WIND       PRES   REMARKS
ARKADELPHIA    FAIR      40  38  93 CALM      30.22S
CAMDEN         CLEAR     41  39  93 CALM      30.20S
TEXARKANA      CLEAR     49  43  80 CALM      30.20S
EL DORADO      CLEAR     44  44 100 CALM      30.20S
DE QUEEN       FOG       40  40 100 CALM      30.19S VSB 1/2
$$

ARZ056-057-069-180900-
SOUTHEAST ARKANSAS

CITY           SKY/WX    TMP DP  RH WIND       PRES   REMARKS
STUTTGART      CLEAR     51  46  83 SE3       30.21S

$$






USA.gov is the U.S. government's official web portal to all federal, state and local government web resources and services.